Regional Weather Roundup
Issued by NWS

Home | Current Version | Previous Version | Graphics & Text | Print | Product List | Glossary On
Versions: 1 2 3 4 5 6 7 8 9 10 11 12 13 14 15 16 17 18 19 20 21 22 23 24 25 26 27 28 29 30 31 32 33 34 35 36 37 38 39 40 41 42 43 44 45 46 47 48 49 50
000
ASUS45 KBOU 171710
RWRCO

WEATHER ROUNDUP FOR COLORADO
NATIONAL WEATHER SERVICE PUEBLO CO
1000 AM MST SAT FEB 17 2018

NOTE: "FAIR" INDICATES FEW OR NO CLOUDS BELOW 12000 FEET WITH NO
SIGNIFICANT WEATHER AND/OR OBSTRUCTIONS TO VISIBILITY.

COZ001>005-013-030-031-171800-
...NORTHWEST COLORADO...

CITY           SKY/WX    TMP DP  RH WIND       PRES   REMARKS
CRAIG          SUNNY     20   9  62 SE3       30.21F
HAYDEN         SUNNY     22  11  62 N6        30.21S WCI  14
MEEKER         SUNNY     32  14  47 VRB3      30.22S
RABBIT EARS PA NOT AVBL
STEAMBOAT SPGS FAIR      29  12  49 CALM      30.19S
WALDEN         FAIR      25  10  54 SW21G30   30.11R WCI  10
$$

COZ006>008-011-171800-
...WEST CENTRAL VALLEYS...

CITY           SKY/WX    TMP DP  RH WIND       PRES   REMARKS
GRAND JUNCTION SUNNY     36  21  54 SE7       30.28R
MONTROSE       SUNNY     33  21  61 NW3       30.29S
EAGLE          SUNNY     36  14  40 CALM      30.25S
RIFLE          SUNNY     26  16  65 CALM      30.29S
DELTA          NOT AVBL
NUCLA          FAIR      34  19  55 CALM      30.31S
$$

COZ017>023-064>068-171800-
...SOUTHWEST COLORADO...

CITY           SKY/WX    TMP DP  RH WIND       PRES   REMARKS
DURANGO        SUNNY     32  21  64 CALM      30.25S
CORTEZ         SUNNY     36  20  52 CALM      30.26F
PAGOSA SPRINGS FAIR      29  19  64 CALM      30.25S
TELLURIDE      SUNNY     28   8  43 CALM      30.29R
WOLF CREEK PAS   N/A     16  16 100 S7        30.27S WCI   6
$$

COZ009-010-012-014-032>034-037-058>063-171800-
...CENTRAL COLORADO...

CITY           SKY/WX    TMP DP  RH WIND       PRES   REMARKS
ASPEN          SUNNY     27  13  55 CALM      30.23R
BUENA VISTA    FAIR      37   0  20 NW23G33   30.11R
COPPER MTN     SUNNY     19   5  53 NW10      30.14R WCI   8
BERTHOUD PASS  FAIR      10   0  61 NW43G53   30.04R WCI -15
COTTONWOOD PAS SUNNY     32   0  25 W24G55    30.09R WCI  19
GUNNISON       SUNNY     28  15  58 CALM      30.26R
KREMMLING      SUNNY     37  14  38 W9G17     30.19R
LEADVILLE      SUNNY     23   3  42 N13       30.16R WCI  11
MONARCH PASS   SUNNY     14   5  67 W47G55    30.23R WCI -11
SALIDA         FAIR      42  -1  16 W30G40    30.17S
SUNLIGHT       SUNNY     18   9  68 SW14G26     N/A  WCI   4
WILKERSON PASS SUNNY     21  -6  30 W15G24    30.06R WCI   8
$$

COZ069>075-171800-
...SAN LUIS VALLEY/SANGRE DE CRISTO MOUNTAINS...

CITY           SKY/WX    TMP DP  RH WIND       PRES   REMARKS
ALAMOSA        SUNNY     34  16  47 NW3       30.21R
DEL NORTE      NOT AVBL
LA VETA PASS   SUNNY     30  10  43 S23G38    30.24R WCI  17
SAGUACHE       SUNNY     36   7  30 NW14G20   30.19F
$$

COZ035-036-038>040-171800-
...NORTHERN COLORADO FRONT RANGE...

CITY           SKY/WX    TMP DP  RH WIND       PRES   REMARKS
DENVER INTL AP MOSUNNY   41  13  31 SE13      30.05R
DMNS CITY PARK NOT AVBL
AURORA         MOSUNNY   40  12  31 SE10      30.06R
FRONT RANGE AP MOSUNNY   41  12  30 S15       30.07R
ERIE MUNI ARPT FAIR      46   1  15 NE6       30.09R
BOULDER MUN AP FAIR      46   9  21 SE8       30.01R
CENTENNIAL     MOSUNNY   41  10  28 S7        30.05R
BROOMFIELD     MOSUNNY   43  12  28 SW13G21   30.04R
LOVELAND       SUNNY     43   9  24 E10G16    30.04R
LONGMONT       FAIR      49   4  16 N9        30.04S
$$

COZ041-046-047-076>085-087-088-171800-
...PIKES PEAK/PALMER DIVIDE AND SOUTHERN FOOTHILLS...

CITY           SKY/WX    TMP DP  RH WIND       PRES   REMARKS
COLO. SPRINGS  MOSUNNY   41  10  28 S12       30.09R
A. F. ACADEMY  SUNNY     40   7  25 S13       30.06R
SCHRIEVER AFB  NOT AVBL
CHEYENNE MTN   NOT AVBL
ELLICOTT         N/A    N/A N/A N/A S9        30.07S
FALCON         FAIR      40   4  22 S8        30.10R
FORT CARSON    SUNNY     40  15  36 S15       30.08S
LIMON          SUNNY     39  13  34 NW8G17    30.10R
MONUMENT HILL  SUNNY     36   9  32 S6        30.08S
CANON CITY     SUNNY     45  18  33 E10       30.09R
WALSENBURG     FAIR      52  10  19 SW18G24   30.09S
TRINIDAD       SUNNY     44  13  28 SE10      30.13R
$$

COZ042>045-048>051-090-091-171800-
...NORTHEAST COLORADO...

CITY           SKY/WX    TMP DP  RH WIND       PRES   REMARKS
GREELEY ARPT   SUNNY     45  10  24 N9G22     30.07R
AKRON          SUNNY     43  12  28 NW37G51   30.06R
BURLINGTON     SUNNY     47   9  21 NW22G46   30.10R
WRAY           FAIR      46  12  25 NW24G38   30.10R
YUMA           NOT AVBL
STERLING       FAIR      45  12  26 NW28G37   30.06R
HOLYOKE        FAIR      46  16  29 NW24G33   30.07R
FORT MORGAN    FAIR      45   8  21 NW26G35   30.08R
$$

COZ086-089-092>099-171800-
...SOUTHEAST COLORADO...

CITY           SKY/WX    TMP DP  RH WIND       PRES   REMARKS
PUEBLO         SUNNY     43  17  35 SE10      30.12R
LA JUNTA       SUNNY     46  14  27 NE6       30.14R
LAMAR          SUNNY     49  11  21 N10       30.13R
SPRINGFIELD      N/A     46  10  23 N20       30.14R
$$




USA.gov is the U.S. government's official web portal to all federal, state and local government web resources and services.